Location: Big Creek Elementary School
(37.2038°N, 119.2485°W)
Time: 18:05:46
(UTC+00:00)

Daily predictions for brighter satellites

Satellite Brightness Start Highest point End
(mag) Time Altitude Azimuth Time Altitude Azimuth Time Altitude Azimuth
Cosmos 1153 Rocket 4.4 12:14:59 10° N 12:21:09 81° E 12:27:17 10° S
ALOS 4.3 12:21:53 10° NE 12:25:52 27° E 12:29:50 10° SSE
Cosmos 1727 Rocket 3.8 12:26:32 63° SW 12:27:25 73° W 12:33:36 10° N
Cosmos 1140 Rocket 3.3 12:36:17 71° W 12:36:25 71° WNW 12:41:41 10° NNE
CZ-4B R/B 4.0 12:34:03 10° NNE 12:38:30 86° ESE 12:39:21 59° S
ISS -2.3 12:39:54 35° ESE 12:39:54 35° ESE 12:42:46 10° ENE
H-2A R/B 2.5 12:38:17 10° NNE 12:42:47 89° ESE 12:44:31 38° SSW
Meteor PRIRODA 4.3 12:41:07 10° NNE 12:44:44 54° E 12:47:20 17° S
Cosmos 407 Rocket 4.2 12:48:21 36° NW 12:48:21 36° NW 12:52:23 10° N
Meteor 1-31 Rocket 3.6 12:44:13 10° N 12:46:42 38° N 12:46:42 38° N
Lacrosse 5 2.5 12:48:55 38° SSW 12:48:55 38° SSW 12:52:45 10° SSE
Cosmos 1954 Rocket 3.9 12:45:23 28° SSW 12:48:15 84° WNW 12:53:37 10° NNE
Meteor 2-3 Rocket 4.0 12:45:56 10° NNW 12:51:24 46° W 12:56:53 10° SSW
Cosmos 1000 Rocket 4.4 12:45:17 10° S 12:51:27 87° W 12:57:43 10° N
Cosmos 2100 Rocket 3.9 12:48:41 10° N 12:54:54 88° W 13:01:02 10° S
Cosmos 1943 Rocket 3.0 12:56:50 30° SW 12:56:50 30° SW 13:00:13 10° S
Cosmos 1459 Rocket 4.0 12:49:34 10° N 12:55:50 87° E 13:02:08 10° S
Sich 1 3.8 12:53:44 10° N 12:57:57 52° E 13:02:11 10° SSE
DELTA 2 R/B (1) 3.5 12:57:09 42° W 12:59:05 76° N 13:04:40 10° ENE
Atlas Centaur 2 3.7 13:00:03 21° SW 13:05:15 46° SSE 13:13:19 10° E
Cosmos 1805 Rocket 3.4 13:01:58 10° N 13:06:19 85° W 13:10:40 10° S
SKYMED 2 3.8 13:05:11 10° SSE 13:09:29 70° ENE 13:13:49 10° N
CZ-2C R/B 3.5 13:08:05 10° NNW 13:11:56 26° WNW 13:11:56 26° WNW
Cosmos 1151 Rocket 4.3 13:09:19 10° SSE 13:13:22 42° E 13:17:28 10° NNE
Cosmos 2123 Rocket 4.0 13:08:39 10° S 13:14:58 86° E 13:21:17 10° N
Cosmos 1725 Rocket 4.4 13:10:05 10° N 13:16:21 69° E 13:22:37 10° SSE
Cosmos 1400 Rocket 2.7 13:14:58 10° SSW 13:18:58 72° W 13:23:03 10° N
FENGYUN 3A 3.6 13:15:09 10° N 13:20:36 82° WNW 13:26:03 10° SSW
Cosmos 2061 Rocket 3.9 13:16:44 10° N 13:23:00 81° W 13:29:10 10° S
Cosmos 1741 Rocket 4.1 13:19:28 10° SSW 13:24:41 79° ESE 13:29:58 10° NNE
BREEZE M DEB (TANK) 3.9 13:17:09 12° WNW 13:25:42 36° WSW 13:29:03 10° S
GPS 2-05 Rocket1 2.2 13:26:23 43° SSW 13:26:44 50° S 13:29:00 10° E
ERBS 4.0 13:24:41 10° SSW 13:27:45 33° SE 13:30:49 10° ENE
Cosmos 921 Rocket 3.8 13:26:10 19° NW 13:28:19 29° W 13:32:00 10° SSW
Cosmos 1340 4.2 13:24:51 10° N 13:28:24 39° ENE 13:31:55 10° SSE
USA 116 4.1 13:25:25 10° SSE 13:28:27 49° ENE 13:31:28 10° N
Cosmos 1656 Rocket 3.8 13:23:27 10° NNW 13:29:00 56° WSW 13:34:32 10° S
CZ-4B R/B 3.7 13:28:00 10° NNW 13:30:55 23° WNW 13:30:56 23° WNW
Cosmos 1328 Rocket 3.8 13:27:13 10° S 13:31:39 74° E 13:36:05 10° N
Cosmos 1864 Rocket 4.4 13:27:08 10° N 13:33:18 85° W 13:39:30 10° S
Cosmos 482 Debris 2.1 13:34:05 63° W 13:34:16 75° SW 13:36:08 10° SE
SL-08 R/B 4.4 13:28:56 10° N 13:35:03 80° W 13:41:07 10° S
Cosmos 1802 Rocket 4.1 13:29:45 10° NNW 13:36:00 55° W 13:42:11 10° SSW
MOS 1-B 4.3 13:31:04 10° N 13:36:52 74° WNW 13:42:39 10° SSW
GEOS 3 Rocket 4.0 13:35:11 10° NNE 13:40:13 44° NW 13:45:15 10° WSW
Cosmos 2369 Rocket 3.4 13:38:07 16° WNW 13:40:15 19° W 13:44:07 10° SW
USA 267 3.9 13:35:20 10° S 13:41:08 34° SW 13:46:58 10° WNW
Okean O Rocket 1.6 13:40:53 10° NNE 13:45:16 84° ESE 13:49:36 10° SSW
Iridium 51 4.1 13:43:16 10° S 13:47:08 87° W 13:50:45 10° N
Cosmos 1633 3.9 13:45:06 10° NW 13:47:41 19° W 13:50:15 10° SW
Cosmos 2016 Rocket 4.2 13:43:54 10° NNW 13:49:56 50° W 13:56:00 10° SSW
Cosmos 1484 Rocket 4.3 13:49:40 10° NNW 13:52:26 18° WNW 13:55:12 10° WSW
NOSS 3-3 (C) 4.5 13:47:05 10° WSW 13:52:30 37° NW 13:58:30 10° NNE
Cosmos 1763 Rocket 4.0 13:47:26 10° NNW 13:52:45 66° ENE 13:57:59 10° SSE
Cosmos 1515 Rocket 3.7 13:51:32 10° S 13:55:58 83° E 14:00:24 10° N
ADEOS Rocket 3.4 13:50:59 10° SSE 13:57:16 82° ENE 14:04:18 10° NNW
Cosmos 1633 Rocket 3.1 13:53:13 10° NNW 13:57:30 54° W 14:01:47 10° S
COSMO-SKYMED 1 3.3 13:53:45 10° SSW 13:57:36 31° W 14:01:28 10° NW
Cosmos 2228 Rocket 4.3 13:53:38 10° SSE 13:57:51 48° E 14:02:07 10° NNE
Cosmos 1238 Rocket 4.2 13:56:02 10° NNW 14:00:38 29° W 14:04:34 10° SW
ALOS 3.2 13:59:18 10° NNW 14:03:10 26° WNW 14:07:01 10° SW
Cosmos 1666 Rocket 4.1 14:00:01 10° NNW 14:04:04 36° W 14:08:03 10° SSW
Cosmos 1862 4.4 14:01:13 10° NW 14:04:26 24° W 14:07:39 10° SW
Cosmos 1933 Rocket 4.1 14:00:19 10° N 14:04:38 63° E 14:08:55 10° SSE
Cosmos 2233 Rocket 4.0 13:59:10 10° N 14:05:27 76° W 14:11:45 10° S
CZ-4B R/B 3.1 14:01:19 10° N 14:06:34 67° WNW 14:11:48 10° SSW
Shenzhou-11 Module 2.9 14:07:18 10° NW 14:09:43 32° NNE 14:12:07 10° E
NOAA 6 4.2 14:06:01 10° N 14:11:01 51° WNW 14:15:57 10° SSW
SL-8 R/B 3.8 14:08:05 10° WSW 14:12:51 66° NNW 14:17:39 10° NE
